Regional Weather Roundup
Issued by NWS

Home | Current Version | Previous Version | Graphics & Text | Print | Product List | Glossary Off
Versions: 1 2 3 4 5 6 7 8 9 10 11 12 13 14 15 16 17 18 19 20 21 22 23 24 25 26 27 28 29 30 31 32 33 34 35 36 37 38 39 40 41 42 43 44 45 46 47 48 49 50

595
ASUS43 KDMX 250801
RWRIA

WEATHER ROUNDUP FOR IOWA
NATIONAL WEATHER SERVICE DES MOINES IA
200 AM CST SAT NOV 25 2017

NOTE: "FAIR" INDICATES FEW OR NO CLOUDS BELOW 12,000 FEET WITH NO
SIGNIFICANT WEATHER AND/OR OBSTRUCTIONS TO VISIBILITY.

* - THESE STATIONS ARE NOT NWS STATIONS...THUS NOT UNDER NWS
QUALITY CONTROL.  THEY ALSO DO NOT REPORT WEATHER SUCH
AS PRECIPITATION OR FOG.

IAZ001>003-012>014-020>022-031>034-043>046-250900-
   NORTHWEST IOWA

CITY           SKY/WX    TMP DP  RH WIND       PRES   REMARKS
CARROLL *      CLEAR     37  32  81 W9        29.96R WCI  31
CHEROKEE *     CLEAR     33  31  94 CALM      29.98R
DENISON *      CLEAR     37  32  81 CALM      30.00R
LE MARS *      CLEAR     36  30  80 W7        29.99R WCI  30
ORANGE CITY *  CLEAR     32  30  93 W5        29.98R WCI  27
SHELDON *      CLEAR     34  30  86 W9        29.95R WCI  26
SIOUX CITY     CLEAR     34  31  88 NW6       30.00R WCI  29
SPENCER        CLEAR     34  30  85 W10       29.95R WCI  26
STORM LAKE *   CLEAR     32  30  93 W13       29.96R WCI  22
$$

IAZ055>058-069>071-079>083-090>094-250900-
   SOUTHWEST IOWA

CITY           SKY/WX    TMP DP  RH WIND       PRES   REMARKS
ATLANTIC *     CLEAR     41  34  75 NW9       29.98S
AUDUBON *      CLEAR     37  34  87 NW5       29.98S WCI  34
CLARINDA *     CLEAR     34  34 100 CALM        N/A
COUNCIL BLFS * CLEAR     41  36  81 W7        30.00S
CRESTON *      CLEAR     36  32  87 W7        29.99R WCI  30
HARLAN  *      CLEAR     36  32  87 CALM      30.02R
LAMONI         CLEAR     38  34  85 NW8       29.96R WCI  32
RED OAK *      CLEAR     32  30  93 CALM      30.01R
SHENANDOAH *   CLEAR     37  34  87 SW3       30.02R
$$

IAZ047>049-059>061-072>074-084-250900-
   CENTRAL IOWA

CITY           SKY/WX    TMP DP  RH WIND       PRES   REMARKS
AMES           CLEAR     39  34  82 W12       29.93R WCI  32
ANKENY *       CLEAR     41  34  75 W10       29.95R
BOONE *        PTCLDY    39  34  81 W10       29.92R WCI  32
CHARITON *     CLEAR     41  34  75 W9        29.95R
DES MOINES     CLEAR     40  33  76 W8        29.95R WCI  34
GRINNELL*      CLEAR     37  32  82 W6        29.91R WCI  32
KNOXVILLE *    CLEAR     41  32  70 NW9       29.92R
MARSHALLTOWN   CLEAR     35  32  88 W8        29.89R WCI  29
NEWTON *       CLEAR     39  32  75 W8        29.92R WCI  34
PELLA *        CLEAR     41  33  73 NW6       29.93S
PERRY *          N/A     38  33  80 W10       29.95R WCI  31
$$

IAZ004>006-015-016-023>025-035-036-250900-
   NORTH CENTRAL IOWA

CITY           SKY/WX    TMP DP  RH WIND       PRES   REMARKS
ALGONA *       PTCLDY    37  34  87 W12       29.92R WCI  30
CLARION *      PTCLDY    37  36  93 NW13      29.91R WCI  29
ESTHERVILLE    CLEAR     35  31  85 W12       29.91R WCI  27
FORT DODGE *   PTCLDY    40  32  73 NW7       29.93R
MASON CITY     MOCLDY    36  32  85 W13       29.89R WCI  27
FOREST CITY *    N/A     36  32  87 W9        29.89R WCI  29
WEBSTER CITY * MOCLDY    39  32  75 NW15      29.90R WCI  31
IOWA FALLS *     N/A     34  32  92 W9        29.90R WCI  27
$$

IAZ007>011-017>019-026>030-037>042-050>054-066-250900-
   NORTHEAST IOWA

CITY           SKY/WX    TMP DP  RH WIND       PRES   REMARKS
CEDAR RAPIDS   CLEAR     38  34  85 NW9       29.85R WCI  31
CHARLES CITY * CLOUDY    37  36  93 W9        29.86R WCI  31
CLINTON *      CLEAR     41  35  79 NW12      29.82R
DECORAH *      CLEAR     39  34  81 W8        29.80R WCI  34
DUBUQUE        CLEAR     41  33  73 NW14      29.81R
MONTICELLO *   CLEAR     39  34  81 NW10G16   29.84R WCI  32
OELWEIN *      PTCLDY    36  36 100 W12       29.85R WCI  27
WATERLOO       PTCLDY    38  32  79 W8        29.87R WCI  32
$$

IAZ064-065-067-068-078-250900-
   EAST CENTRAL IOWA

CITY           SKY/WX    TMP DP  RH WIND       PRES   REMARKS
DAVENPORT      CLEAR     42  35  76 NW13      29.85R
IOWA CITY      CLEAR     45  35  68 NW13      29.88R
MT. PLEASANT * CLEAR     44  35  71 W8        29.89R
MUSCATINE *    PTCLDY    43  36  75 MISG      29.88R
QUAD CITIES    PTCLDY    45  35  68 W10       29.83R
$$

IAZ062-063-075>077-085>089-095>099-250900-
   SOUTHEAST IOWA

CITY           SKY/WX    TMP DP  RH WIND       PRES   REMARKS
BURLINGTON     CLEAR     44  37  76 NW13      29.87R
FAIRFIELD *    PTCLDY    41  34  75 NW10      29.89R
FORT MADISON * CLEAR     45  37  76 NW14      29.89R
KEOKUK *       CLEAR     46  37  71 NW16G24   29.88R
OSKALOOSA *      N/A     39  33  80 NW9       29.91R WCI  32
OTTUMWA        PTCLDY    43  34  70 NW10      29.90R
WASHINGTON *   PTCLDY    43  36  75 NW12G18   29.89R
$$

ABBREVIATIONS USED IN REMARKS
   TC - TEMPERATURES IN CELSIUS
  WCI - WIND CHILL INDEX
   HX - HEAT INDEX
  VSB - VISIBILITY
$$





USA.gov is the U.S. government's official web portal to all federal, state and local government web resources and services.